This demonstration page uses our WeatherBlox Daily Observations layout. Learn more.

Left ArrowRight Arrow

41.55636, -103.73856

Hourly Observations for May 24, 2019

Temp ( °F °C ) Dew Point ( °F °C ) Humidity (%) Winds ( mph kmh ) Pressure ( in mb ) Visibility ( mi km ) Precip ( " mm )
6:58 pm 18:58 undefined 42 5.6 39 3.9 89 89 SSE 15 24 29.94 1014 10 16 0.00 0.00
7:58 pm 19:58 undefined 41 5.2 39 3.7 90 90 S 14 22 29.97 1015 10 16 0.00 0.00
8:58 pm 20:58 Mostly Clear with Drizzle 41 4.9 39 4 94 94 S 16 26 29.97 1015 3 5 0.00 0.00
9:58 pm 21:58 Mostly Clear with Light Showers 41 4.8 39 4 95 95 SE 10 17 29.91 1013 8 13 0.00 0.00
10:58 pm 22:58 Mostly Clear with Light Showers 41 4.9 39 4 94 94 S 18 30 29.94 1014 10 16 0.00 0.00
11:58 pm 23:58 undefined 41 4.8 39 3.8 93 93 SSW 16 26 29.90 1013 10 16 0.00 0.00
12:58 am 00:58 undefined 41 4.9 39 3.9 93 93 SSW 25 41 29.88 1012 10 16 0.00 0.00
1:58 am 01:58 undefined 41 5 39 3.7 91 91 SSW 22 35 29.88 1012 10 16 0.00 0.00
2:58 am 02:58 undefined 40 4.5 38 3.1 91 91 SSW 21 33 29.83 1010 10 16 0.00 0.00
3:58 am 03:58 undefined 38 3.5 37 2.5 93 93 SSW 17 28 29.83 1010 9 14 0.00 0.00
4:58 am 04:58 Mostly Clear with Mist and Fog 37 3 36 2.1 94 94 SW 14 22 29.85 1011 2 2 0.00 0.00
5:58 am 05:58 Partly Cloudy with Fog 38 3.1 36 2.4 95 95 SSW 12 19 29.88 1012 0 0 0.00 0.00
6:58 am 06:58 Partly Cloudy with Mist and Fog 39 3.8 38 3.2 96 96 SSW 17 28 29.88 1012 4 6 0.00 0.00
7:58 am 07:58 undefined 44 6.7 39 4 83 83 SW 16 26 29.88 1012 10 16 0.00 0.00
8:58 am 08:58 undefined 47 8.2 40 4.3 77 77 SSW 20 31 29.89 1012 10 16 0.00 0.00
9:58 am 09:58 undefined 51 10.8 38 3.6 61 61 SW 16 26 29.87 1011 10 16 0.00 0.00
10:58 am 10:58 undefined 56 13.6 37 3 49 49 SSW 20 31 29.85 1011 10 16 0.00 0.00
11:58 am 11:58 undefined 60 15.4 38 3.1 44 44 WSW 20 31 29.83 1010 10 16 0.00 0.00
12:58 pm 12:58 undefined 60 15.6 32 -0.1 34 34 SW 10 17 29.82 1010 10 16 0.00 0.00
1:58 pm 13:58 undefined 61 16 32 -0.1 34 34 Calm 29.82 1010 10 16 0.00 0.00
2:58 pm 14:58 undefined 59 15.2 37 2.9 44 44 N 12 19 29.83 1010 10 16 0.00 0.00
3:58 pm 15:58 Partly Cloudy with Light Showers 58 14.5 38 3.6 48 48 NE 9 15 29.84 1011 10 16 0.00 0.00
4:58 pm 16:58 Partly Cloudy with Light Showers 57 13.9 34 1.3 43 43 NNW 16 26 29.87 1011 10 16 0.00 0.00
5:58 pm 17:58 Partly Cloudy with Light Showers 55 12.6 40 4.2 57 57 NNE 6 9 29.87 1011 10 16 0.00 0.00

Powered by AerisWeather